EW5545 Weather Reports


Display with metric or nautical units.
time (UTC)temp
F
wind
direction
speed
MPH
gust
MPH
rain 1hr
in
rain 24hr
in
rain mn
in
humidity
%
barometer
mb
20260509203507 57 184 0.0 0.0 0.00 0.00 0.00 85 1016.6
20260509202007 57 183 0.0 0.0 0.00 0.00 0.00 84 1016.8
20260509201507 57 183 0.0 0.0 0.00 0.00 0.00 84 1016.9
20260509201005 57 182 0.0 0.0 0.00 0.00 0.00 84 1016.9
20260509200006 58 181 0.0 0.0 0.00 0.01 0.00 84 1016.9
20260509195505 58 181 0.0 0.0 0.00 0.01 0.00 84 1016.9
20260509195007 58 181 0.0 0.0 0.00 0.01 0.00 83 1017.0
20260509194506 58 180 0.0 0.0 0.00 0.01 0.00 82 1017.0
20260509194007 58 178 0.0 2.0 0.00 0.01 0.00 82 1017.0
20260509193507 58 178 0.0 0.0 0.00 0.01 0.00 81 1016.9
20260509193010 59 178 0.0 1.0 0.00 0.01 0.00 81 1016.9
20260509192505 59 175 0.0 1.0 0.00 0.01 0.00 80 1016.9
20260509192007 59 194 0.0 2.0 0.00 0.01 0.00 80 1016.9
20260509191507 59 223 0.0 1.0 0.00 0.01 0.00 79 1016.8
20260509191010 60 223 0.0 1.0 0.00 0.01 0.00 78 1016.7
20260509190511 60 223 1.0 1.0 0.00 0.01 0.00 77 1016.7
20260509190007 61 48 0.0 0.0 0.00 0.02 0.00 76 1016.7
20260509185007 61 48 0.0 1.0 0.00 0.02 0.00 74 1016.5
20260509184505 62 48 0.0 0.0 0.00 0.02 0.00 72 1016.3
20260509184010 62 48 0.0 1.0 0.00 0.02 0.00 72 1016.2
20260509183506 62 48 0.0 2.0 0.00 0.02 0.00 71 1016.1
20260509182507 63 40 1.0 2.0 0.00 0.02 0.00 72 1016.0
20260509181007 64 52 0.0 3.0 0.00 0.02 0.00 70 1016.0
20260509180507 64 36 2.0 3.0 0.00 0.02 0.00 69 1016.0
20260509180010 64 42 2.0 5.0 0.00 0.02 0.00 69 1015.9
20260509175505 64 39 2.0 3.0 0.00 0.02 0.00 67 1015.9
20260509175010 64 42 3.0 3.0 0.00 0.02 0.00 67 1015.9
20260509174507 65 46 1.0 6.0 0.00 0.02 0.00 66 1015.9
20260509174006 65 36 4.0 6.0 0.00 0.02 0.00 65 1015.8
20260509173505 65 30 2.0 6.0 0.00 0.02 0.00 64 1015.9
20260509173007 66 44 4.0 7.0 0.00 0.02 0.00 63 1015.8
20260509172505 66 49 3.0 7.0 0.00 0.02 0.00 62 1015.7
20260509172007 66 35 3.0 6.0 0.00 0.02 0.00 61 1015.7
20260509171505 67 39 4.0 8.0 0.00 0.02 0.00 60 1015.6
20260509171007 67 45 3.0 5.0 0.00 0.02 0.00 60 1015.6
20260509170507 67 44 5.0 8.0 0.00 0.02 0.00 58 1015.5
20260509170006 68 47 5.0 8.0 0.00 0.02 0.00 56 1015.5
20260509165505 68 47 2.0 5.0 0.00 0.02 0.00 56 1015.6
20260509165006 68 54 2.0 8.0 0.00 0.02 0.00 56 1015.7
20260509164505 69 51 3.0 7.0 0.00 0.02 0.00 55 1015.7
20260509164006 69 45 4.0 10.0 0.00 0.02 0.00 55 1015.8
20260509163505 69 50 3.0 6.0 0.00 0.02 0.00 55 1015.7
20260509163007 69 54 2.0 7.0 0.00 0.02 0.00 55 1015.7
20260509162007 69 44 5.0 8.0 0.00 0.02 0.00 53 1015.6
20260509161005 69 41 5.0 8.0 0.00 0.02 0.00 52 1015.5
20260509160507 69 40 4.0 12.0 0.00 0.02 0.00 52 1015.5
20260509160005 69 42 5.0 10.0 0.00 0.02 0.00 52 1015.4
20260509155505 69 53 5.0 9.0 0.00 0.02 0.00 52 1015.4
20260509155011 69 40 7.0 12.0 0.00 0.02 0.00 52 1015.3
20260509154506 70 45 6.0 12.0 0.00 0.02 0.00 51 1015.5
20260509154006 70 50 5.0 8.0 0.00 0.02 0.00 51 1015.5
20260509153508 70 42 6.0 12.0 0.00 0.02 0.00 51 1015.6
20260509153006 70 36 5.0 12.0 0.00 0.02 0.00 51 1015.7
20260509152011 71 38 5.0 8.0 0.00 0.02 0.00 50 1015.9
20260509151505 71 49 4.0 9.0 0.00 0.02 0.00 50 1015.9
20260509151010 71 47 5.0 8.0 0.00 0.02 0.00 50 1015.9
20260509150507 71 39 6.0 12.0 0.00 0.02 0.00 50 1015.8
20260509145505 71 50 5.0 12.0 0.00 0.02 0.00 51 1015.8
20260509145007 71 40 8.0 13.0 0.00 0.03 0.00 50 1015.8
20260509144010 72 57 6.0 15.0 0.00 0.03 0.00 47 1015.7
20260509143508 73 41 7.0 15.0 0.00 0.03 0.00 46 1015.7
20260509143010 73 47 6.0 12.0 0.00 0.03 0.00 46 1015.7
20260509142007 73 51 3.0 12.0 0.00 0.03 0.00 46 1015.7
20260509141505 73 47 6.0 12.0 0.00 0.03 0.00 46 1015.7
20260509141006 73 46 3.0 7.0 0.00 0.04 0.00 46 1015.6
20260509140506 73 51 2.0 10.0 0.00 0.04 0.00 46 1015.6
20260509135506 73 46 6.0 12.0 0.00 0.04 0.00 44 1015.6
20260509135007 73 55 4.0 9.0 0.00 0.04 0.00 45 1015.5
20260509134506 73 40 4.0 10.0 0.00 0.04 0.00 45 1015.7
20260509134005 73 34 5.0 13.0 0.00 0.04 0.00 44 1015.6
20260509133505 74 42 3.0 8.0 0.00 0.04 0.00 45 1015.5
20260509133006 74 41 5.0 9.0 0.00 0.04 0.00 44 1015.6
20260509132505 73 40 6.0 10.0 0.00 0.04 0.00 44 1015.7
20260509132007 74 52 5.0 8.0 0.00 0.04 0.00 44 1015.8
20260509131506 74 32 3.0 7.0 0.00 0.04 0.00 44 1015.8
20260509131008 74 53 1.0 10.0 0.00 0.04 0.00 44 1015.8
20260509130506 74 48 4.0 12.0 0.00 0.05 0.00 43 1015.8
20260509125507 74 314 3.0 7.0 0.00 0.05 0.00 44 1015.9
20260509124507 73 7 3.0 9.0 0.00 0.05 0.00 45 1015.9
20260509124011 73 50 5.0 10.0 0.00 0.05 0.00 45 1015.9
20260509123005 73 40 5.0 10.0 0.00 0.05 0.00 44 1015.9
20260509122506 73 46 3.0 6.0 0.00 0.05 0.00 44 1015.9
20260509122010 73 13 4.0 8.0 0.00 0.05 0.00 45 1015.9
20260509121506 73 46 6.0 10.0 0.00 0.05 0.00 44 1016.0
20260509121010 73 58 5.0 12.0 0.00 0.05 0.00 45 1015.9
20260509120505 73 36 1.0 3.0 0.00 0.05 0.00 47 1016.0
20260509120010 72 16 2.0 8.0 0.00 0.05 0.00 46 1016.0
20260509115505 72 37 5.0 12.0 0.00 0.05 0.00 46 1016.0
20260509115006 72 48 7.0 12.0 0.00 0.05 0.00 47 1015.9
20260509114505 72 45 3.0 10.0 0.00 0.05 0.00 47 1016.0
20260509114005 71 51 6.0 12.0 0.00 0.05 0.00 47 1016.0
20260509113007 71 45 4.0 13.0 0.00 0.05 0.00 47 1016.0
20260509112510 71 42 4.0 9.0 0.00 0.05 0.00 47 1016.0
20260509112007 72 48 6.0 12.0 0.00 0.05 0.00 47 1016.0
20260509111506 71 53 5.0 12.0 0.00 0.05 0.00 48 1016.0
20260509111006 71 43 7.0 12.0 0.00 0.05 0.00 47 1016.1
20260509110007 73 51 2.0 6.0 0.00 0.05 0.00 47 1016.1
20260509103505 70 45 6.0 12.0 0.00 0.05 0.00 49 1016.1
20260509103006 71 51 6.0 10.0 0.00 0.05 0.00 48 1016.1
20260509102505 70 42 3.0 12.0 0.00 0.05 0.00 49 1016.1
20260509102007 70 36 4.0 12.0 0.00 0.05 0.00 49 1016.1
20260509101007 70 332 3.0 12.0 0.00 0.05 0.00 50 1016.0
20260509100006 69 40 6.0 12.0 0.00 0.06 0.00 50 1015.9
20260509095506 70 48 6.0 12.0 0.00 0.06 0.00 50 1015.9
20260509095015 70 40 3.0 12.0 0.00 0.06 0.00 50 1016.0
20260509094507 69 44 6.0 12.0 0.00 0.06 0.00 51 1016.0
20260509094007 70 57 7.0 12.0 0.00 0.06 0.00 50 1016.0
20260509093508 70 20 4.0 9.0 0.00 0.06 0.00 50 1016.0
20260509093006 70 32 3.0 7.0 0.00 0.06 0.00 51 1016.0
20260509092506 69 42 6.0 12.0 0.00 0.06 0.00 51 1016.1
20260509092006 70 35 3.0 10.0 0.00 0.06 0.00 51 1016.1
20260509091505 70 337 1.0 7.0 0.00 0.06 0.00 51 1016.1
20260509091006 69 40 5.0 12.0 0.00 0.07 0.00 52 1016.1
20260509090505 69 51 5.0 10.0 0.00 0.07 0.00 52 1016.1
20260509090007 70 43 2.0 6.0 0.00 0.07 0.00 51 1016.1
20260509085505 70 49 4.0 8.0 0.00 0.07 0.00 51 1016.1
20260509085007 69 4 3.0 6.0 0.00 0.07 0.00 51 1016.1
20260509084507 69 27 2.0 6.0 0.00 0.07 0.00 52 1016.0
20260509084006 69 10 3.0 7.0 0.00 0.07 0.00 53 1016.0
20260509083507 68 43 3.0 8.0 0.00 0.07 0.00 52 1016.0
20260509083006 68 54 6.0 12.0 0.00 0.07 0.00 52 1016.0
20260509082505 68 41 3.0 9.0 0.00 0.07 0.00 53 1015.9
20260509082007 68 47 3.0 9.0 0.00 0.07 0.00 53 1015.9
20260509081506 68 37 4.0 8.0 0.00 0.07 0.00 53 1015.9
20260509080505 68 43 6.0 13.0 0.00 0.07 0.00 52 1015.9
20260509080006 68 356 4.0 7.0 0.00 0.08 0.00 52 1016.0
20260509075505 67 53 4.0 12.0 0.00 0.08 0.00 52 1015.9
20260509074507 67 51 2.0 7.0 0.00 0.08 0.00 55 1016.0
20260509074006 67 32 3.0 7.0 0.00 0.09 0.00 54 1016.0
20260509073506 66 358 2.0 5.0 0.00 0.09 0.00 57 1016.0
20260509073007 66 34 1.0 8.0 0.00 0.09 0.00 61 1016.1
20260509072511 64 41 3.0 8.0 0.00 0.09 0.00 73 1016.0
20260509072006 64 48 1.0 3.0 0.00 0.10 0.00 84 1015.9
20260509071007 61 278 0.0 3.0 0.00 0.11 0.00 87 1015.9
20260509070505 60 290 1.0 3.0 0.00 0.11 0.00 84 1015.9
20260509070007 59 256 1.0 5.0 0.00 0.12 0.00 83 1015.8
20260509065507 59 262 2.0 5.0 0.00 0.12 0.00 83 1015.9
20260509064507 58 251 2.0 3.0 0.00 0.13 0.00 83 1015.9
20260509064012 58 248 1.0 3.0 0.00 0.13 0.00 83 1015.9
20260509063007 57 249 1.0 3.0 0.00 0.13 0.00 83 1015.8
20260509062508 58 234 2.0 3.0 0.00 0.14 0.00 83 1015.8
20260509061507 58 236 2.0 3.0 0.00 0.15 0.00 83 1015.7
20260509061005 59 234 0.0 3.0 0.00 0.16 0.00 83 1015.7
20260509060507 58 231 0.0 1.0 0.00 0.16 0.00 83 1015.7
20260509055518 57 204 1.0 3.0 0.00 0.17 0.00 83 1015.8
20260509053505 56 241 1.0 3.0 0.00 0.19 0.00 83 1015.5
20260509053007 56 246 0.0 2.0 0.00 0.19 0.00 83 1015.4
20260509052005 55 246 0.0 2.0 0.00 0.19 0.00 83 1015.3
20260509051507 55 246 0.0 2.0 0.00 0.19 0.00 83 1015.3
20260509051007 54 246 1.0 2.0 0.00 0.19 0.00 83 1015.3
20260509050010 54 246 0.0 0.0 0.00 0.19 0.00 84 1015.3
20260509045505 53 246 0.0 1.0 0.00 0.19 0.00 84 1015.2
20260509045007 53 246 0.0 1.0 0.00 0.19 0.00 84 1015.2
20260509044007 53 246 0.0 0.0 0.00 0.19 0.00 84 1015.1
20260509043505 53 246 0.0 0.0 0.00 0.19 0.00 84 1015.1
20260509043007 53 246 0.0 0.0 0.00 0.19 0.00 84 1015.2
20260509042506 53 246 0.0 0.0 0.00 0.19 0.00 84 1015.2
20260509042007 53 246 0.0 1.0 0.00 0.19 0.00 84 1015.2
20260509041506 53 246 0.0 1.0 0.00 0.19 0.00 84 1015.2
20260509041007 53 246 0.0 1.0 0.00 0.19 0.00 84 1015.2
20260509040506 53 246 0.0 0.0 0.00 0.19 0.00 84 1015.2
20260509035507 53 246 0.0 0.0 0.00 0.19 0.00 84 1015.2
20260509035007 53 246 0.0 0.0 0.00 0.19 0.00 84 1015.1
20260509034506 53 246 0.0 0.0 0.00 0.19 0.00 84 1015.1
20260509033005 53 246 0.0 0.0 0.00 0.19 0.00 84 1015.1
20260509032506 53 246 0.0 0.0 0.00 0.19 0.00 84 1015.1
20260509032007 53 246 0.0 1.0 0.00 0.19 0.00 84 1015.1
20260509031507 53 246 0.0 1.0 0.00 0.19 0.00 84 1015.2
20260509031006 53 246 0.0 1.0 0.00 0.19 0.00 84 1015.2
20260509030507 53 246 0.0 1.0 0.00 0.19 0.00 84 1015.2
20260509030007 53 246 0.0 1.0 0.00 0.19 0.00 84 1015.1
20260509025006 53 246 0.0 0.0 0.00 0.19 0.00 84 1015.1
20260509024506 53 246 0.0 0.0 0.00 0.19 0.00 84 1015.0
20260509024005 53 246 0.0 1.0 0.00 0.19 0.00 84 1015.0
20260509023511 53 246 1.0 2.0 0.00 0.19 0.00 84 1015.0
20260509023008 53 246 0.0 2.0 0.00 0.19 0.00 83 1014.9
20260509022507 53 246 1.0 2.0 0.00 0.19 0.00 83 1014.9
20260509022006 53 246 0.0 1.0 0.00 0.19 0.00 83 1014.9
20260509021507 53 246 0.0 1.0 0.00 0.19 0.00 83 1014.9
20260509021008 54 246 0.0 0.0 0.00 0.19 0.00 83 1014.9
20260509020507 54 246 0.0 0.0 0.00 0.19 0.00 83 1014.9
20260509020015 54 246 0.0 0.0 0.00 0.19 0.00 83 1014.9
20260509015508 54 246 0.0 0.0 0.00 0.19 0.00 83 1014.9
20260509015007 54 246 0.0 0.0 0.00 0.19 0.00 83 1014.8
20260509014505 54 246 0.0 0.0 0.00 0.19 0.00 83 1014.8
20260509013508 54 246 0.0 0.0 0.00 0.19 0.00 83 1014.6
20260509013007 54 246 0.0 0.0 0.00 0.19 0.00 83 1014.7
20260509012507 54 246 0.0 2.0 0.00 0.19 0.00 83 1014.6
20260509011507 54 245 0.0 0.0 0.00 0.19 0.00 83 1014.6
20260509011011 54 245 0.0 0.0 0.00 0.19 0.00 83 1014.6
20260509010505 54 245 0.0 0.0 0.00 0.19 0.00 83 1014.6
20260509010007 54 245 0.0 2.0 0.00 0.19 0.00 83 1014.6
20260509005507 54 322 0.0 1.0 0.00 0.19 0.00 83 1014.6
20260509005006 55 319 1.0 2.0 0.00 0.19 0.00 83 1014.6
20260509004507 55 5 0.0 1.0 0.00 0.19 0.00 83 1014.7
20260509004007 55 336 0.0 2.0 0.00 0.19 0.00 83 1014.7
20260509003507 55 300 0.0 2.0 0.00 0.19 0.00 83 1014.9
20260509003006 55 12 1.0 2.0 0.00 0.19 0.00 83 1014.9
20260509002507 55 12 1.0 3.0 0.00 0.19 0.00 83 1014.9
20260509002007 55 71 0.0 3.0 0.00 0.19 0.00 83 1014.9
20260509001505 55 29 1.0 3.0 0.00 0.19 0.00 83 1014.9
20260509001007 55 250 1.0 3.0 0.00 0.19 0.00 83 1014.9
20260509000507 55 314 0.0 3.0 0.00 0.19 0.00 83 1014.9
20260509000006 55 247 0.0 2.0 0.00 0.19 0.00 83 1014.9
20260508235507 55 289 0.0 2.0 0.00 0.19 0.00 83 1015.0
20260508235007 55 287 0.0 1.0 0.00 0.19 0.00 83 1015.0
20260508234007 55 284 0.0 0.0 0.00 0.19 0.00 83 1015.0
20260508233506 55 284 0.0 1.0 0.00 0.19 0.00 83 1015.0
20260508233011 55 284 0.0 0.0 0.00 0.19 0.00 83 1015.0
20260508232507 55 284 0.0 2.0 0.00 0.19 0.00 83 1015.1
20260508232007 55 330 1.0 2.0 0.00 0.19 0.00 83 1015.1
20260508231005 55 341 0.0 2.0 0.00 0.19 0.00 83 1015.1
20260508230506 55 313 0.0 3.0 0.00 0.19 0.00 83 1015.0
20260508230005 55 336 1.0 3.0 0.00 0.19 0.00 83 1015.0
20260508225507 55 57 1.0 2.0 0.00 0.19 0.00 83 1015.1
20260508225008 55 24 0.0 3.0 0.00 0.19 0.00 83 1015.1
20260508224505 55 37 1.0 3.0 0.00 0.19 0.00 83 1015.1
20260508224007 55 10 2.0 5.0 0.00 0.19 0.00 83 1015.1
20260508223505 55 324 1.0 3.0 0.00 0.19 0.00 83 1015.2
20260508223007 55 292 1.0 3.0 0.00 0.19 0.00 83 1015.2
20260508222507 55 45 2.0 3.0 0.00 0.19 0.00 83 1015.2
20260508222010 55 348 1.0 3.0 0.00 0.19 0.00 83 1015.1
20260508221007 55 249 0.0 3.0 0.00 0.19 0.00 83 1015.1
20260508220507 55 2 1.0 3.0 0.00 0.19 0.00 83 1015.1
20260508220010 55 278 0.0 3.0 0.00 0.19 0.00 83 1015.1
20260508215507 55 13 1.0 3.0 0.00 0.19 0.19 83 1015.2
20260508215011 55 312 0.0 2.0 0.00 0.19 0.19 83 1015.2
20260508214016 55 291 0.0 3.0 0.00 0.19 0.19 83 1015.1
20260508213007 55 286 0.0 2.0 0.00 0.19 0.19 83 1015.0
20260508212505 55 237 0.0 3.0 0.00 0.19 0.19 83 1015.0
20260508212006 55 327 1.0 2.0 0.00 0.19 0.19 83 1014.9
20260508211507 55 14 1.0 3.0 0.00 0.19 0.19 83 1014.8
20260508211007 55 52 0.0 3.0 0.00 0.19 0.19 83 1014.9
20260508210506 55 54 1.0 6.0 0.00 0.19 0.19 83 1014.8
20260508210008 55 48 2.0 6.0 0.01 0.19 0.19 83 1014.7
20260508205507 55 55 1.0 3.0 0.01 0.19 0.19 83 1014.7
20260508205007 55 328 1.0 3.0 0.01 0.19 0.19 83 1014.8
20260508204506 55 29 1.0 3.0 0.01 0.19 0.19 83 1014.9
20260508204006 55 40 1.0 6.0 0.01 0.19 0.19 83 1015.0